Flag for Cabo Verde Weather past 2 weeks in Santa Maria, Cabo Verde

Now
73 °F

Passing clouds.


Feels Like: 76 °F
Forecast: 74 / 81 °F
Wind: 6 mph from Northeast

Location: Sal

Current Time: Jul 8, 2015 at 2:07:56 AM

Latest Report: Jul 8, 2015 at 1:00 AM


Visibility: N/A

Pressure: 29.95 "Hg

Humidity: 69%

Dew point: 63 °F

Location of Santa MariaLocation

Historic Weather in Santa Maria — Graph

°F

Santa Maria temperature yesterday

Maximum temperature yesterday: 81 °F (at 11:00 AM)
Minimum temperature yesterday: 73 °F (at 12:00 AM)
Average temperature yesterday: 76 °F

Past Weeks' High & Low Weather Summary

 TemperatureHumidityPressure
High82 °F (Jun 23, 1:00 PM)89% (Jul 3, 10:00 PM)30.15 "Hg (Jul 3, 10:00 PM)
Low70 °F (Jun 26, 4:00 AM)54% (Jun 27, 12:00 PM)29.86 "Hg (Jul 5, 4:00 PM)
Average76 °F72%30.01 "Hg
* Reported Jun 23 1:00 AM — Jul 8 1:00 AM, Santa Maria, Weather by CustomWeather, © 2015

Note: Actual official high and low records may vary slightly from our data, if they occured in-between our weather recording intervals... More about our weather records

Advertising

Santa Maria weather history for previous 24 hours

 ConditionsComfort  
Time TempWeatherWind HumidityBarometerVisibility
1:00 AM
Wed, Jul 8
73 °FPassing clouds.6 mph69%29.95 "HgN/A
12:00 AM73 °FPassing clouds.9 mph69%29.95 "HgN/A
11:00 PM
Tue, Jul 7
73 °FPassing clouds.9 mph69%29.95 "HgN/A
10:00 PM75 °FPassing clouds.9 mph69%29.95 "HgN/A
9:00 PM75 °FPassing clouds.7 mph69%29.95 "HgN/A
8:00 PM75 °FPassing clouds.5 mph69%29.95 "HgN/A
7:00 PM75 °FPassing clouds.8 mph69%29.95 "HgN/A
6:00 PM77 °FPassing clouds.9 mph61%29.92 "HgN/A
5:00 PM79 °FPartly sunny.9 mph61%29.92 "HgN/A
4:00 PM81 °FBroken clouds.10 mph58%29.92 "HgN/A
3:00 PM81 °FPartly sunny.12 mph58%29.95 "HgN/A
2:00 PM81 °FScattered clouds.12 mph58%29.95 "HgN/A
1:00 PM81 °FPartly sunny.14 mph58%29.95 "HgN/A
12:00 PM81 °FScattered clouds.12 mph54%29.98 "HgN/A
11:00 AM81 °FPartly sunny.15 mph58%29.95 "HgN/A
10:00 AM79 °FPartly sunny.13 mph58%29.98 "HgN/A
9:00 AM77 °FPartly sunny.10 mph61%29.98 "HgN/A
8:00 AM75 °FPartly sunny.8 mph65%29.95 "HgN/A
7:00 AM73 °FPartly sunny.7 mph69%29.95 "HgN/A
6:00 AM73 °FPartly sunny.6 mph69%29.92 "HgN/A
5:00 AM73 °FPartly sunny.8 mph69%29.92 "HgN/A
4:00 AM73 °FPassing clouds.7 mph69%29.92 "HgN/A
3:00 AM73 °FPassing clouds.7 mph69%29.92 "HgN/A
2:00 AM73 °FPassing clouds.7 mph69%29.92 "HgN/A
Weather by CustomWeather, © 2015

See weather overviewHow to use our weather pages